EHI
35 37 40 40 33 21 12 8 4 1 0 1 1 1 0 0 1 1 1 0 0 0 0 0 0 0 0 0 0 0 0 0 0 0 0 0 0 0 0 0 0 0 0
39 39 40 38 33 23 14 8 5 1 0 0 1 2 1 1 1 1 0 0 0 0 0 0 0 0 0 0 0 0 0 0 0 0 0 0 0 0 0 0 0 0 0
39 38 38 38 34 27 17 10 6 3 0 0 1 2 3 2 2 1 1 0 0 0 0 0 0 0 0 0 0 0 0 0 0 0 0 0 0 0 0 0 0 0 0
33 33 37 40 38 30 21 14 10 6 4 3 2 2 3 3 4 3 2 1 0 0 0 0 0 0 0 0 0 0 0 0 0 0 0 0 0 0 0 0 0 0 0
29 32 39 44 41 34 25 17 12 9 7 6 3 2 2 3 4 4 2 1 1 1 0 0 0 0 0 0 0 0 0 0 0 0 0 0 0 0 0 0 0 0 0
31 34 41 44 41 36 28 19 13 9 8 6 4 2 1 1 1 2 2 2 2 1 0 0 0 0 0 0 0 0 0 0 0 0 0 0 0 0 0 0 0 0 0
35 36 39 39 36 34 29 22 15 11 7 5 4 3 1 0 0 0 1 1 1 1 0 0 0 0 0 0 0 0 0 0 0 0 0 0 0 0 0 0 0 0 0
39 37 35 35 34 32 29 24 18 13 9 7 5 2 1 0 0 0 0 0 0 0 0 0 0 0 0 0 0 0 0 0 0 0 0 0 0 0 0 0 0 0 0
40 36 34 34 32 31 27 23 17 13 9 6 4 1 0 0 0 0 0 0 0 0 0 1 0 0 0 0 0 0 0 0 0 0 0 0 0 0 0 0 0 0 0
36 33 32 32 30 28 24 19 14 10 7 4 2 1 0 0 0 0 0 0 0 0 0 0 0 0 0 0 0 0 0 0 0 0 0 0 0 0 0 0 0 0 0
32 31 30 31 29 25 20 16 12 8 5 2 1 0 0 0 0 0 0 0 0 0 0 0 0 0 0 0 0 0 0 0 0 0 0 0 0 0 0 0 0 0 0
31 30 30 31 29 23 18 16 13 9 5 2 0 0 0 0 0 0 0 0 0 0 0 0 0 0 0 0 0 0 0 0 0 0 0 0 0 0 0 0 0 0 0
29 30 30 30 28 22 17 16 15 12 6 2 0 0 0 0 0 0 0 0 0 0 0 0 0 0 0 0 0 0 0 0 0 0 0 0 0 0 0 0 0 0 0
26 27 29 29 27 23 18 16 15 12 7 3 0 0 0 0 0 0 0 0 0 0 0 0 0 0 0 0 0 0 0 0 0 0 0 0 0 0 0 0 0 0 0
24 25 26 27 25 23 19 16 14 13 10 5 2 1 1 0 0 0 0 0 0 0 0 0 0 0 0 0 0 0 0 0 0 0 0 0 0 0 0 0 0 0 0
24 23 22 21 20 19 18 16 15 15 14 10 6 4 2 1 0 0 0 0 0 0 0 0 0 0 0 0 0 0 0 0 0 0 0 0 0 0 0 0 0 0 0
23 21 17 13 13 15 17 16 16 17 17 14 10 6 3 1 0 0 0 0 0 0 0 0 0 0 0 0 0 0 0 0 0 0 0 0 0 0 0 0 0 0 0
19 18 14 10 11 13 15 15 16 16 16 14 10 6 3 1 0 0 0 0 0 0 0 0 0 0 0 0 0 0 0 0 0 0 0 0 0 0 0 0 0 0 0
17 15 12 10 10 11 12 13 13 13 13 11 9 5 3 1 1 1 0 0 0 0 0 0 0 0 0 0 0 0 0 0 0 0 0 0 0 0 0 0 0 0 0
14 12 10 10 10 9 9 9 9 9 9 8 6 4 3 2 2 2 1 0 0 0 0 0 0 0 0 0 0 0 0 0 0 0 0 0 0 0 0 0 0 0 1
10 9 8 9 9 8 7 6 5 6 5 4 3 3 3 3 3 2 1 0 0 0 0 0 0 0 0 0 0 0 0 0 0 0 0 0 0 0 0 0 0 0 1
6 6 7 8 8 7 5 4 3 3 2 1 1 1 2 3 3 2 1 0 0 0 0 0 0 0 0 0 0 0 0 0 0 0 0 0 0 0 0 0 0 0 1
4 4 5 6 7 6 5 3 3 2 1 0 0 0 1 1 2 2 1 0 0 0 0 0 0 0 0 0 0 0 0 0 0 0 0 0 0 0 0 0 0 0 0
3 3 3 4 5 6 5 4 2 1 0 0 0 0 0 0 1 1 0 0 0 0 0 0 0 0 0 0 0 0 0 0 0 0 0 0 0 0 0 0 0 0 0
2 2 1 2 3 4 4 4 2 0 0 0 0 0 0 0 0 0 0 0 0 0 0 0 0 0 0 0 0 0 0 0 0 0 0 0 0 0 0 0 0 0 0
1 1 1 2 2 1 3 4 3 1 0 0 0 0 0 0 0 0 0 0 0 0 0 0 0 0 0 0 0 0 0 0 0 0 0 0 0 0 0 0 0 0 0
Wind_Speed
9 11 14 13 13 13 13 13 13 13 12 13 13 13 13 13 13 13 13 13 13 13 13 14 14 14 14 14 14 14 14 13 14 14 14 14 14 15 15 14 12 9 15
13 13 15 14 13 13 13 13 13 12 12 12 13 13 13 13 13 13 13 13 13 13 13 13 13 14 13 13 13 12 11 11 11 12 12 12 13 14 14 14 13 9 14
14 14 14 14 13 13 13 13 13 12 12 12 12 12 12 12 13 13 12 12 13 13 13 13 13 13 13 12 12 11 10 9 9 10 9 5 8 13 13 14 14 14 13
14 13 13 15 14 13 13 13 13 13 12 12 12 12 12 12 12 12 12 12 12 12 12 12 12 12 12 12 11 10 9 9 9 9 6 6 6 12 13 13 13 13 12
12 12 14 15 14 14 13 13 13 12 12 12 12 12 12 12 12 13 12 12 12 13 12 12 12 12 11 11 10 9 8 9 9 8 5 6 5 11 12 12 12 11 11
12 12 13 14 14 14 13 13 12 12 12 12 12 12 12 12 12 12 12 12 12 12 12 11 11 11 10 10 9 8 8 8 7 5 5 6 5 10 11 11 10 10 10
11 11 13 14 14 14 13 13 12 12 12 12 12 11 11 12 12 12 12 12 11 11 11 11 10 10 10 9 8 7 7 7 5 5 5 5 6 10 10 10 10 9 9
11 12 11 13 13 13 13 13 12 12 12 11 11 11 11 12 12 11 11 11 11 11 10 10 9 9 8 8 7 6 6 6 5 6 5 4 8 10 10 10 9 9 9
10 11 10 10 11 12 12 12 12 11 11 11 11 11 11 11 11 11 11 10 10 10 10 9 9 8 8 7 5 4 5 6 4 3 6 4 8 9 9 9 9 9 9
8 9 9 9 8 8 8 11 11 11 10 11 11 10 10 10 10 10 9 9 9 9 9 8 8 7 6 4 3 3 4 4 3 4 3 4 8 8 8 8 8 8 8
7 7 8 8 7 8 7 10 10 9 10 10 8 9 8 5 6 6 8 9 9 8 8 7 6 5 4 2 0 2 3 1 3 4 3 6 7 7 7 7 8 8 8
6 7 6 7 7 7 7 7 6 6 6 5 5 5 4 4 4 7 8 8 7 7 6 5 4 3 1 0 1 2 0 2 3 3 3 7 6 6 7 7 7 8 7
6 6 6 6 7 6 5 5 4 3 4 4 5 4 3 3 4 4 3 4 4 4 2 3 2 1 0 0 1 1 1 2 2 3 3 6 6 5 6 6 7 7 7
6 5 5 6 6 6 5 4 4 3 3 3 3 4 3 3 3 3 2 2 2 2 2 1 0 1 0 0 1 2 2 1 2 2 3 6 6 5 5 5 6 6 6
5 5 5 5 6 5 5 4 4 3 3 3 3 3 4 3 3 2 2 2 2 1 2 1 0 1 0 1 1 1 1 2 2 3 2 5 5 4 4 5 5 5 6
5 5 5 5 5 5 5 4 4 3 3 3 3 3 4 3 3 3 2 2 1 1 1 1 1 1 0 1 1 2 2 2 2 2 2 3 4 3 3 4 4 5 5
5 5 5 5 5 5 5 4 4 3 3 3 3 3 3 3 3 3 2 2 1 1 1 1 1 1 1 1 1 1 2 2 2 2 2 2 2 3 3 4 4 4 5
5 6 5 4 5 4 4 4 3 3 3 3 2 3 3 3 3 3 2 2 1 1 1 1 1 1 1 1 1 1 1 1 1 2 2 2 1 1 1 2 3 4 5
5 6 5 5 5 4 4 4 3 3 3 2 2 2 3 3 3 2 2 2 2 2 1 1 1 1 1 1 1 1 1 1 0 1 1 1 1 1 0 1 2 3 4
4 5 6 6 5 5 4 3 3 3 2 2 2 2 3 3 3 3 2 2 2 2 1 1 1 1 1 1 1 1 1 1 0 1 1 1 1 1 1 0 0 1 3
4 4 5 5 5 5 3 3 3 3 2 2 2 3 3 3 3 3 2 2 2 1 1 1 1 2 1 1 2 2 2 1 0 0 1 1 1 1 1 1 0 0 1
3 3 4 5 5 5 3 2 2 3 2 2 2 2 3 3 3 3 3 2 2 2 1 1 1 1 1 1 1 0 1 2 2 1 0 0 1 1 1 2 1 1 0
4 4 3 3 4 5 5 4 4 3 2 2 2 1 2 3 3 3 2 2 2 2 1 1 2 2 0 0 1 1 1 1 2 2 1 1 1 1 1 1 2 1 1
3 3 3 3 3 4 5 5 6 4 3 2 2 2 3 3 3 3 3 3 2 2 2 1 2 1 1 0 1 0 1 1 0 2 2 1 1 1 1 1 2 2 1
2 2 2 2 2 4 5 6 5 4 3 3 3 4 3 2 3 3 3 3 2 2 2 2 1 1 1 0 0 0 1 1 1 1 2 2 2 2 2 2 2 2 2
2 2 2 2 1 2 4 5 5 6 5 5 5 4 3 2 2 2 3 3 2 2 2 2 1 1 1 1 1 0 0 0 1 1 2 2 3 3 2 2 1 1 1
Wind_Direction
125 132 134 130 129 127 125 124 121 117 115 112 110 107 105 102 102 101 99 97 95 92 90 87 84 82 79 77 77 76 76 75 75 73 71 69 67 65 63 62 61 61 63
128 133 133 130 129 128 127 123 121 119 116 113 111 108 107 105 104 104 102 99 97 94 90 88 85 83 81 78 77 76 76 76 77 75 72 69 69 67 65 62 63 64 62
127 132 135 131 129 129 127 124 122 120 116 113 111 109 109 107 105 103 102 98 95 93 90 88 86 84 82 79 77 75 74 71 70 70 71 71 70 68 65 63 63 62 60
128 134 137 133 130 129 128 126 123 121 118 115 111 109 109 108 105 102 100 97 95 94 92 89 88 86 83 80 78 74 70 61 56 58 61 68 68 71 68 64 61 60 58
128 132 133 133 131 130 128 126 123 120 118 115 112 110 109 107 104 101 99 96 96 94 94 92 90 88 85 82 78 71 63 56 51 57 62 64 63 70 69 65 60 57 55
125 126 132 134 132 131 130 127 125 123 121 118 115 113 110 107 104 101 98 97 96 96 96 94 92 89 85 81 76 66 54 51 50 60 63 62 62 67 66 63 60 54 52
127 127 135 135 135 134 132 130 128 126 123 122 120 117 114 110 105 102 99 98 97 99 99 97 94 90 85 80 74 60 45 41 63 66 65 61 63 66 62 59 54 52 47
125 126 134 134 134 135 134 132 131 129 127 125 122 120 116 113 109 106 102 100 98 98 99 97 93 91 86 79 70 49 26 28 62 73 70 62 66 66 60 56 51 49 45
124 129 136 137 134 134 134 133 131 129 128 126 123 120 115 114 113 110 106 104 102 99 96 94 93 92 89 83 68 33 18 21 45 64 72 61 66 65 60 53 48 46 41
122 130 137 140 139 137 134 132 130 128 126 125 122 119 117 117 117 113 107 105 105 101 98 96 93 93 93 88 60 9 0 10 56 69 66 62 64 63 56 49 42 41 37
122 129 138 144 143 140 139 134 130 128 127 124 124 128 129 132 127 115 108 106 107 105 103 101 99 97 101 106 14 323 340 38 72 74 66 66 63 58 53 46 39 37 35
130 134 140 143 143 142 142 138 138 138 140 142 143 147 148 127 115 114 111 113 112 112 113 116 122 122 123 174 270 289 326 59 76 85 73 72 64 54 49 44 39 36 35
143 136 142 142 141 139 135 138 137 139 146 145 148 147 126 114 116 115 120 119 124 130 128 142 162 190 135 84 343 3 37 59 75 83 78 74 63 57 50 41 35 36 38
137 134 135 137 137 137 133 132 135 136 135 132 137 130 121 115 117 126 130 139 142 140 141 155 189 131 105 82 48 32 22 51 87 95 85 81 69 57 47 39 39 34 34
130 132 135 133 134 133 129 133 131 130 129 130 123 126 122 122 126 124 124 124 125 122 136 157 124 92 65 50 39 38 35 50 74 92 95 85 74 59 45 40 35 30 24
133 131 127 125 129 131 129 130 125 122 124 123 128 128 121 122 129 125 116 116 117 113 120 116 128 106 58 66 33 33 42 50 69 86 106 96 86 71 48 31 22 17 14
139 131 126 130 127 126 126 128 123 118 119 122 125 124 122 122 125 125 123 119 113 108 99 79 51 55 43 52 48 43 40 47 55 76 88 97 91 72 55 31 14 5 4
137 134 131 131 127 127 120 119 119 117 114 115 117 122 125 123 122 121 122 124 110 100 95 95 70 63 39 33 28 31 39 43 54 79 78 80 89 84 54 31 8 357 354
140 138 136 129 127 128 123 120 119 113 109 115 115 123 127 125 122 119 120 118 105 91 90 94 77 79 61 34 21 21 26 25 64 81 86 79 75 86 96 46 9 350 349
139 132 137 130 127 124 119 114 112 103 100 105 114 116 117 118 117 111 108 105 104 99 82 89 104 80 79 55 20 14 342 302 119 145 139 86 59 33 9 344 0 324 336
136 134 141 135 133 125 123 129 130 131 124 112 114 114 112 111 112 110 106 105 97 99 113 112 104 96 67 55 47 354 321 305 298 146 96 69 20 359 353 340 339 316 308
134 134 142 142 142 137 135 135 129 128 130 123 112 110 112 112 110 110 111 110 104 93 78 61 80 81 63 73 96 63 328 323 327 324 3 43 324 336 347 346 332 328 324
149 148 148 150 149 144 134 122 112 103 104 103 120 129 116 111 112 111 114 106 99 100 102 73 71 76 120 333 73 118 147 258 309 290 274 286 321 333 314 307 319 316 324
150 140 147 159 152 147 145 145 146 146 154 164 151 134 120 119 121 115 115 112 114 112 116 109 83 71 103 191 343 28 172 180 180 296 295 285 302 296 300 311 315 304 296
106 118 132 147 150 158 157 154 152 150 144 135 131 128 123 114 115 122 126 124 126 122 120 108 88 81 79 82 287 291 292 309 290 219 276 292 300 282 282 284 282 291 304
105 106 125 126 132 159 162 159 156 152 147 143 145 143 137 129 121 124 127 125 126 122 126 129 117 107 96 73 28 13 60 258 279 262 269 290 289 281 276 265 262 296 315